{"data":{"norad_id":59298,"intl_designator":"2024-056C","name":"STARLINK-31386","alt_names":[],"object_type":"PAYLOAD","status":"ACTIVE","operator":null,"country":"US","launch_date":"2024-03-24","launch_site_code":"AFETR","launch_vehicle":null,"mission":null,"orbit_class":"UNKNOWN","rcs_meters":null,"size_class":null,"mass_kg":null,"dimensions":null,"purposes":["comms"],"wikipedia_slug":null,"has_3d_model":false,"image_url":null,"decayed_at":null,"tle_current":{"epoch":"2026-05-25T01:18:50.957280Z","epoch_age_seconds":80906,"freshness":"FRESH","line1":"1 59298U 24056C   26145.05475645  .00000908  00000+0  42534-4 0  9992","line2":"2 59298  43.0009 159.4163 0001320 273.4561  86.6139 15.27577595122836","mean_motion":15.27577595,"eccentricity":0.000132,"inclination_deg":43.0009,"raan_deg":159.4163,"arg_perigee_deg":273.4561,"mean_anomaly_deg":86.6139,"bstar":4.2534e-5,"rev_number":12283,"period_min":94.2668971261,"perigee_km":482.15061996903,"apogee_km":483.96197499956,"semimajor_km":6861.1932974843,"source":"CELESTRAK","updated_at":"2026-05-25T13:38:18.897408Z"}}}